White Plains, CT

5:17 AM EST on December 09, 2019 (GMT -0500)
Westchester County

Weather History for KHPN - August, 2019

Change the Weather History Date:

Friday, August 16, 2019

  Actual Average Record
Temperature  
Mean Temperature 70 °F -  
Max Temperature 79 °F 79 °F 93 °F (1997)
Min Temperature 64 °F 62 °F 53 °F (1979)
Cooling Degree Days 6    
Growing Degree Days 20 (Base 50)    
Moisture  
Dew Point 65 °F    
Average Humidity 83    
Maximum Humidity 96    
Minimum Humidity 64    
Precipitation  
Precipitation 0.00 in - - ()
Sea Level Pressure  
Sea Level Pressure 30.03 in    
Wind  
Wind Speed 5 mph (ESE)    
Max Wind Speed 8 mph    
Max Gust Speed -    
Visibility 10 miles    
Events      
Averages and records for this station are not official NWS values.
T = Trace of Precipitation, MM = Missing Value Source: NWS Daily Summary

Daily Weather History Graph

Daily Weather History Graph

Search for Another Location

Airport or City:

Astronomy

Aug. 16, 2019 Rise Set
Actual Time 6:05 AM EDT 7:52 PM EDT
Civil Twilight 5:35 AM EDT 8:21 PM EDT
Nautical Twilight 4:59 AM EDT 8:57 PM EDT
Astronomical Twilight 4:21 AM EDT 9:35 PM EDT
Moon 8:50 PM EDT (8/16) 6:54 AM EDT (8/16)
Length of Visible Light 14h 46m
Length of Day
13h 47m
Full, 99% of the Moon is Illuminated
Aug 16
Full
Aug 23
Last Quarter
Aug 30
New
Sep 5
First Quarter
Sep 14
Full

Hourly Weather History & Observations

Time (EDT) Temp. Dew Point Humidity Pressure Visibility Wind Dir Wind Speed Gust Speed Precip Events Conditions
12:15 AM 66.9 °F 64.0 °F 90% 30.05 in 10.0 mi East 5.8 mph - N/A   Mostly Cloudy
12:56 AM 66.9 °F 64.0 °F 90% 30.05 in 10.0 mi Calm Calm - N/A   Mostly Cloudy
1:56 AM 66.0 °F 64.0 °F 93% 30.04 in 10.0 mi North 5.8 mph - N/A   Mostly Cloudy
2:56 AM 64.9 °F 63.0 °F 93% 30.01 in 10.0 mi ENE 5.8 mph - N/A   Scattered Clouds
3:56 AM 64.9 °F 63.0 °F 93% 30.00 in 10.0 mi East 4.6 mph - N/A   Clear
4:56 AM 64.0 °F 63.0 °F 96% 30.01 in 10.0 mi Calm Calm - N/A   Clear
5:56 AM 64.0 °F 63.0 °F 96% 30.02 in 10.0 mi Calm Calm - N/A   Partly Cloudy
6:56 AM 66.0 °F 64.0 °F 93% 30.03 in 8.0 mi ENE 4.6 mph - N/A   Partly Cloudy
7:56 AM 66.9 °F 64.9 °F 93% 30.03 in 10.0 mi East 3.5 mph - N/A   Mostly Cloudy
8:56 AM 70.0 °F 64.9 °F 84% 30.04 in 10.0 mi Calm Calm - N/A   Mostly Cloudy
9:56 AM 73.9 °F 64.0 °F 71% 30.04 in 10.0 mi SE 5.8 mph - N/A   Scattered Clouds
10:56 AM 75.0 °F 63.0 °F 66% 30.04 in 10.0 mi South 5.8 mph - N/A   Scattered Clouds
11:56 AM 75.9 °F 66.0 °F 71% 30.04 in 10.0 mi SE 8.1 mph - N/A   Scattered Clouds
12:56 PM 75.9 °F 64.9 °F 69% 30.03 in 10.0 mi SE 6.9 mph - N/A   Mostly Cloudy
1:56 PM 77.0 °F 64.0 °F 64% 30.04 in 10.0 mi SW 4.6 mph - N/A   Mostly Cloudy
2:56 PM 77.0 °F 66.0 °F 69% 30.04 in 10.0 mi SW 4.6 mph - N/A   Mostly Cloudy
3:56 PM 77.0 °F 66.0 °F 69% 30.02 in 10.0 mi ESE 4.6 mph - N/A   Mostly Cloudy
4:56 PM 75.9 °F 66.9 °F 74% 30.02 in 10.0 mi SE 8.1 mph - N/A   Mostly Cloudy
5:56 PM 75.9 °F 66.9 °F 74% 30.01 in 10.0 mi ESE 8.1 mph - N/A   Mostly Cloudy
6:56 PM 75.0 °F 66.9 °F 76% 29.99 in 10.0 mi East 6.9 mph - N/A   Clear
7:56 PM 73.0 °F 68.0 °F 84% 30.00 in 10.0 mi East 4.6 mph - N/A   Clear
8:56 PM 72.0 °F 68.0 °F 87% 30.01 in 10.0 mi ESE 4.6 mph - N/A   Clear
9:56 PM 71.1 °F 69.1 °F 93% 30.02 in 10.0 mi SSE 5.8 mph - N/A   Clear
10:56 PM 70.0 °F 68.0 °F 93% 30.04 in 10.0 mi SE 5.8 mph - N/A   Partly Cloudy
11:56 PM 71.1 °F 69.1 °F 93% 30.04 in 10.0 mi East 5.8 mph - N/A   Partly Cloudy